Location: Eferding
(48.3167°N, 14.0167°E)
Time: 02:19:56
(UTC+00:00)

CENTAUR R/B - Pass Details

Date: 12 November 2019
Orbit: 779 x 1409 km, 63.4° (Epoch: 01 December)

Event Time Altitude Azimuth Distance (km) Brightness Sun altitude
Rises 19:22:13 0° 313° (NW) 3,976 6.4 -38.5°
Reaches altitude 10° 19:25:02 10° 322° (NW) 3,106 5.6 -38.9°
Enters shadow 19:29:39 32° 354° (N) 2,014 4.2 -39.7°
